Tacoma Narrows, WA

2:26 AM PDT on October 19, 2017 (GMT -0700)
Tacoma Narrows

Weather History for KTIW - March, 2013

Change the Weather History Date:

Tuesday, March 26, 2013

  Actual Average Record
Temperature  
Mean Temperature 52 °F -  
Max Temperature 59 °F 50 °F 69 °F (2015)
Min Temperature 46 °F 39 °F 33 °F (2009)
Degree Days  
Heating Degree Days 12    
Growing Degree Days 2 (Base 50)    
Moisture  
Dew Point 36 °F    
Average Humidity 56    
Maximum Humidity 79    
Minimum Humidity 40    
Precipitation  
Precipitation 0.00 in - - ()
Sea Level Pressure  
Sea Level Pressure 29.99 in    
Wind  
Wind Speed 1 mph (West)    
Max Wind Speed 7 mph    
Max Gust Speed -    
Visibility 10 miles    
Events      
Averages and records for this station are not official NWS values.
T = Trace of Precipitation, MM = Missing Value Source: NWS Daily Summary

Daily Weather History Graph

Daily Weather History Graph

Search for Another Location

Airport or City:

Trip Planner

Search our weather history database for the weather conditions in past years. The results will help you decide how hot, cold, wet, or windy it might be!

Date:

Astronomy

Mar. 26, 2013 Rise Set
Actual Time 7:00 AM PDT 7:32 PM PDT
Civil Twilight 6:29 AM PDT 8:02 PM PDT
Nautical Twilight 5:53 AM PDT 8:39 PM PDT
Astronomical Twilight 5:15 AM PDT 9:17 PM PDT
Moon 7:16 PM PDT (3/26) 6:20 AM PDT (3/26)
Length of Visible Light 13h 32m
Length of Day
12h 31m
Full, 100% of the Moon is Illuminated
Mar 26
Full
Mar 27
Full
Apr 2
Last Quarter
Apr 10
New
Apr 18
First Quarter

Hourly Weather History & Observations

Time (PDT) Temp. Dew Point Humidity Pressure Visibility Wind Dir Wind Speed Gust Speed Precip Events Conditions
12:53 AM 48.9 °F 33.1 °F 54% 29.97 in 10.0 mi Calm Calm - N/A   Overcast
1:53 AM 48.0 °F 33.1 °F 56% 29.97 in 10.0 mi NNW 3.5 mph - N/A   Overcast
2:53 AM 48.0 °F 33.1 °F 56% 29.97 in 10.0 mi Calm Calm - N/A   Overcast
3:53 AM 48.0 °F 33.1 °F 56% 29.97 in 10.0 mi Calm Calm - N/A   Overcast
4:53 AM 46.9 °F 35.1 °F 63% 29.97 in 10.0 mi Calm Calm - N/A   Overcast
5:53 AM 46.0 °F 35.1 °F 66% 29.99 in 10.0 mi Calm Calm - N/A   Overcast
6:53 AM 46.9 °F 34.0 °F 61% 29.99 in 10.0 mi Calm Calm - N/A   Overcast
7:53 AM 46.0 °F 39.9 °F 79% 30.01 in 10.0 mi Calm Calm - N/A   Overcast
8:53 AM 46.9 °F 39.0 °F 74% 30.01 in 10.0 mi Calm Calm - N/A   Overcast
9:53 AM 48.0 °F 37.9 °F 68% 30.02 in 10.0 mi Calm Calm - N/A   Overcast
10:53 AM 51.1 °F 35.1 °F 54% 30.03 in 10.0 mi Calm Calm - N/A   Mostly Cloudy
11:53 AM 52.0 °F 37.0 °F 57% 30.03 in 10.0 mi Calm Calm - N/A   Overcast
12:53 PM 54.0 °F 34.0 °F 47% 30.02 in 10.0 mi Calm Calm - N/A   Mostly Cloudy
1:53 PM 57.0 °F 36.0 °F 45% 30.02 in 10.0 mi Variable 6.9 mph - N/A   Mostly Cloudy
2:53 PM 57.0 °F 33.1 °F 40% 30.00 in 10.0 mi WSW 4.6 mph - N/A   Clear
3:53 PM 59.0 °F 36.0 °F 42% 29.99 in 10.0 mi WSW 3.5 mph - N/A   Mostly Cloudy
4:53 PM 57.9 °F 36.0 °F 44% 29.98 in 10.0 mi SW 3.5 mph - N/A   Overcast
5:53 PM 57.9 °F 36.0 °F 44% 29.97 in 10.0 mi SW 4.6 mph - N/A   Overcast
6:53 PM 57.0 °F 35.1 °F 44% 29.97 in 10.0 mi Calm Calm - N/A   Clear
7:53 PM 53.1 °F 37.0 °F 55% 29.97 in 10.0 mi NNE 3.5 mph - N/A   Mostly Cloudy
8:53 PM 52.0 °F 37.0 °F 57% 29.97 in 10.0 mi Calm Calm - N/A   Partly Cloudy
9:53 PM 50.0 °F 37.9 °F 63% 29.98 in 10.0 mi Calm Calm - N/A   Overcast
10:53 PM 50.0 °F 37.0 °F 61% 29.99 in 10.0 mi Calm Calm - N/A   Overcast
11:53 PM 50.0 °F 36.0 °F 59% 29.98 in 10.0 mi Calm Calm - N/A   Overcast